Weather History for Rutland, VT

Change the Weather History Date:

Sunday, December 30, 2012

  Actual Average Record
Temperature  
Mean Temperature 14 °F -  
Max Temperature 19 °F - 57 °F (1984)
Min Temperature 9 °F - -10 °F (1962)
Degree Days  
Heating Degree Days 51    
Month to date heating degree days 1011  
Since 1 July heating degree days 2365  
Cooling Degree Days 0    
Month to date cooling degree days 0  
Year to date cooling degree days 411  
Moisture  
Dew Point 10 °F    
Average Humidity 81    
Maximum Humidity 100    
Minimum Humidity 61    
Precipitation  
Precipitation 0.01 in - 0.61 in (1954)
Month to date precipitation 1.47  
Year to date precipitation 23.32  
Sea Level Pressure  
Sea Level Pressure 29.81 in    
Wind  
Wind Speed 7 mph (NW)    
Max Wind Speed 14 mph    
Max Gust Speed 18 mph    
Visibility 8 miles    
Events      
T = Trace of Precipitation, MM = Missing Value Source: NWS Daily Summary

Daily Weather History Graph

Daily Weather History Graph

Search for Another Location

Airport:

Trip Planner

Search our weather history database for the weather conditions in past years. The results will help you decide how hot, cold, wet, or windy it might be!

Date:

Astronomy

Dec. 30, 2012 Rise Set
Actual Time 7:24 AM EST 4:24 PM EST
Civil Twilight 6:52 AM EST 4:57 PM EST
Nautical Twilight 6:16 AM EST 5:33 PM EST
Astronomical Twilight 5:41 AM EST 6:08 PM EST
Moon 6:57 PM EST (12/30) 8:28 AM EST (12/30)
Length of Visible Light 10h 05m
Length of Day
8h 59m
Waning Gibbous, 95% of the Moon is Illuminated
Dec 30
Waning Gibbous
Jan 4
Last Quarter
Jan 11
New
Jan 18
First Quarter
Jan 26
Full

Hourly Weather History & Observations

Time (EST) Temp. Windchill Dew Point Humidity Pressure Visibility Wind Dir Wind Speed Gust Speed Precip Events Conditions
12:15 AM 19.4 °F 10.4 °F 17.6 °F 93% 29.55 in 2.0 mi North 6.9 mph - N/A   Overcast
12:55 AM 19.4 °F 11.5 °F 17.6 °F 93% 29.56 in 1.5 mi North 5.8 mph - 0.01 in   Overcast
1:15 AM 19.4 °F 11.5 °F 15.8 °F 86% 29.57 in 1.8 mi NNW 5.8 mph - N/A   Overcast
1:55 AM 17.6 °F 6.4 °F 14.0 °F 86% 29.59 in 3.0 mi NNW 9.2 mph - N/A   Overcast
2:15 AM 17.6 °F 4.3 °F 14.0 °F 86% 29.59 in 4.0 mi NNW 12.7 mph 19.6 mph N/A   Mostly Cloudy
3:35 AM 15.8 °F 4.2 °F 12.2 °F 86% 29.62 in 10.0 mi NW 9.2 mph 18.4 mph N/A   Overcast
3:55 AM 15.8 °F 4.2 °F 12.2 °F 86% 29.62 in 10.0 mi NW 9.2 mph - N/A   Overcast
4:15 AM 15.8 °F 6.1 °F 12.2 °F 86% 29.63 in 10.0 mi NW 6.9 mph - N/A   Overcast
4:35 AM 15.8 °F 6.1 °F 10.4 °F 79% 29.63 in 7.0 mi WNW 6.9 mph - N/A   Overcast
4:55 AM 15.8 °F 7.2 °F 12.2 °F 86% 29.64 in 8.0 mi WNW 5.8 mph - N/A   Overcast
5:15 AM 15.8 °F 6.1 °F 10.4 °F 79% 29.65 in 9.0 mi WNW 6.9 mph - N/A   Overcast
5:35 AM 15.8 °F 7.2 °F 12.2 °F 86% 29.66 in 10.0 mi NW 5.8 mph - N/A   Overcast
5:55 AM 15.8 °F 8.6 °F 12.2 °F 86% 29.67 in 10.0 mi WNW 4.6 mph - N/A   Overcast
6:15 AM 15.8 °F 10.2 °F 10.4 °F 79% 29.68 in 10.0 mi WNW 3.5 mph - N/A   Overcast
6:55 AM 15.8 °F 10.2 °F 12.2 °F 86% 29.69 in 10.0 mi WNW 3.5 mph - N/A   Overcast
7:15 AM 15.8 °F 10.2 °F 12.2 °F 86% 29.70 in 10.0 mi NW 3.5 mph - N/A   Overcast
7:35 AM 15.8 °F 8.6 °F 10.4 °F 79% 29.71 in 4.0 mi NW 4.6 mph - N/A   Overcast
7:55 AM 15.8 °F 8.6 °F 12.2 °F 86% 29.72 in 1.8 mi WNW 4.6 mph - N/A   Overcast
8:15 AM 15.8 °F 6.1 °F 10.4 °F 79% 29.73 in 3.0 mi WNW 6.9 mph - N/A   Overcast
8:35 AM 15.8 °F 4.2 °F 12.2 °F 86% 29.74 in 3.0 mi WNW 9.2 mph - N/A   Overcast
8:55 AM 15.8 °F 4.2 °F 12.2 °F 86% 29.75 in 2.5 mi WNW 9.2 mph - N/A   Overcast
9:15 AM 15.8 °F 5.1 °F 12.2 °F 86% 29.76 in 3.0 mi NW 8.1 mph - N/A   Overcast
9:35 AM 15.8 °F 6.1 °F 12.2 °F 86% 29.77 in 2.0 mi NW 6.9 mph - N/A   Overcast
9:55 AM 15.8 °F 6.1 °F 12.2 °F 86% 29.78 in 2.0 mi NW 6.9 mph - N/A   Overcast
10:15 AM 17.6 °F 8.2 °F 12.2 °F 79% 29.79 in 1.8 mi NW 6.9 mph - N/A   Overcast
10:35 AM 17.6 °F 8.2 °F 12.2 °F 79% 29.79 in 3.0 mi NNW 6.9 mph - N/A   Overcast
11:15 AM 17.6 °F 6.4 °F 12.2 °F 79% 29.79 in 10.0 mi WNW 9.2 mph - N/A   Overcast
11:35 AM 19.4 °F 7.9 °F 12.2 °F 74% 29.79 in 10.0 mi WNW 10.4 mph - N/A   Overcast
11:55 AM 19.4 °F 9.5 °F 10.4 °F 68% 29.79 in 10.0 mi NW 8.1 mph - N/A   Overcast
12:15 PM 19.4 °F 7.2 °F 8.6 °F 63% 29.79 in 10.0 mi WNW 11.5 mph 19.6 mph N/A   Overcast
12:35 PM 19.4 °F 9.5 °F 10.4 °F 68% 29.79 in 10.0 mi WNW 8.1 mph 17.3 mph N/A   Overcast
12:55 PM 19.4 °F 6.0 °F 10.4 °F 68% 29.79 in 5.0 mi WNW 13.8 mph 18.4 mph N/A   Mostly Cloudy
1:15 PM 19.4 °F 7.9 °F 10.4 °F 68% 29.79 in 10.0 mi WNW 10.4 mph 17.3 mph N/A   Partly Cloudy
1:35 PM 19.4 °F 7.9 °F 8.6 °F 63% 29.79 in 8.0 mi North 10.4 mph 17.3 mph N/A   Partly Cloudy
1:55 PM 19.4 °F 7.2 °F 12.2 °F 74% 29.80 in 10.0 mi NW 11.5 mph - N/A   Clear
2:15 PM 19.4 °F 7.9 °F 12.2 °F 74% 29.80 in 10.0 mi North 10.4 mph - N/A   Clear
2:35 PM 19.4 °F 7.2 °F 10.4 °F 68% 29.82 in 10.0 mi NNW 11.5 mph - N/A   Clear
2:55 PM 19.4 °F 8.6 °F 10.4 °F 68% 29.83 in 10.0 mi NNW 9.2 mph - N/A   Clear
3:15 PM 19.4 °F 9.5 °F 12.2 °F 74% 29.85 in 10.0 mi NNW 8.1 mph - N/A   Partly Cloudy
3:35 PM 19.4 °F 9.5 °F 12.2 °F 74% 29.85 in 10.0 mi NNW 8.1 mph 16.1 mph N/A   Scattered Clouds
3:55 PM 17.6 °F 6.4 °F 10.4 °F 73% 29.87 in 10.0 mi North 9.2 mph - N/A   Partly Cloudy
4:15 PM 17.6 °F 8.2 °F 10.4 °F 73% 29.88 in 10.0 mi North 6.9 mph - N/A   Clear
4:35 PM 15.8 °F 6.1 °F 10.4 °F 79% 29.89 in 10.0 mi NNW 6.9 mph - N/A   Clear
4:55 PM 15.8 °F 5.1 °F 8.6 °F 73% 29.91 in 10.0 mi NW 8.1 mph - N/A   Clear
5:35 PM 15.8 °F 6.1 °F 6.8 °F 68% 29.94 in 10.0 mi NW 6.9 mph - N/A   Clear
6:15 PM 15.8 °F 5.1 °F 5.0 °F 62% 29.98 in 10.0 mi NW 8.1 mph - N/A   Clear
6:35 PM 15.8 °F 2.1 °F 3.2 °F 58% 29.98 in 10.0 mi WNW 12.7 mph - N/A   Clear
7:15 PM 15.8 °F 3.4 °F 6.8 °F 68% 30.00 in 10.0 mi WNW 10.4 mph - N/A   Partly Cloudy
7:35 PM 14.0 °F 1.2 °F 5.0 °F 67% 30.01 in 10.0 mi WNW 10.4 mph - N/A   Clear
7:55 PM 12.2 °F 4.3 °F 3.2 °F 67% 30.02 in 10.0 mi NW 4.6 mph - N/A   Clear
8:15 PM 12.2 °F 2.9 °F 3.2 °F 67% 30.03 in 10.0 mi NNW 5.8 mph - N/A   Clear
8:35 PM 10.4 °F 0.8 °F 6.8 °F 85% 30.03 in 10.0 mi NNW 5.8 mph - N/A   Clear
8:55 PM 10.4 °F 2.2 °F 6.8 °F 85% 30.02 in 10.0 mi NNW 4.6 mph - N/A   Clear
9:15 PM 10.4 °F 4.0 °F 6.8 °F 85% 30.02 in 10.0 mi NW 3.5 mph - N/A   Clear
9:35 PM 10.4 °F 4.0 °F 5.0 °F 79% 30.02 in 10.0 mi NW 3.5 mph - N/A   Clear
10:15 PM 10.4 °F 0.8 °F 3.2 °F 73% 30.04 in 10.0 mi NW 5.8 mph - N/A   Scattered Clouds
10:35 PM 8.6 °F 0.1 °F 6.8 °F 92% 30.05 in 10.0 mi NW 4.6 mph - N/A   Overcast
10:55 PM 8.6 °F 2.0 °F 3.2 °F 79% 30.05 in 10.0 mi North 3.5 mph - N/A   Overcast
11:15 PM 8.6 °F 2.0 °F 3.2 °F 79% 30.04 in 10.0 mi NW 3.5 mph - N/A   Overcast
11:55 PM 10.4 °F - 5.0 °F 79% 30.04 in 10.0 mi Calm Calm - N/A   Overcast